This is the latest recevied weather packets stored in our database for station/object KE3HG-2. If no packets are shown the sender has not sent any weather packets the latest 10 day(s).
| Time | Temp. | Humidity | Pressure | Rain* | Wind** | Luminosity | Snow |
|---|---|---|---|---|---|---|---|
| 1777930724 | 22.22° C | 27% | 757.5 hPa | 0 mm | - | - | - |
| 1777930125 | 22.22° C | 28% | 757.5 hPa | 0 mm | - | - | - |
| 1777929525 | 22.22° C | 28% | 757.5 hPa | 0 mm | - | - | - |
| 1777928564 | 22.78° C | 26% | 757.5 hPa | 0 mm | - | - | - |
| 1777927963 | 23.33° C | 25% | 757.5 hPa | 0 mm | - | - | - |
| 1777927364 | 23.33° C | 25% | 757.5 hPa | 0 mm | - | - | - |
| 1777926403 | 23.33° C | 26% | 757.5 hPa | 0 mm | - | - | - |
| 1777925803 | 22.78° C | 24% | 757.5 hPa | 0 mm | - | - | - |
| 1777925202 | 22.78° C | 25% | 757.5 hPa | 0 mm | - | - | - |
| 1777924230 | 22.78° C | 24% | 757.5 hPa | 0 mm | - | - | - |
| 1777923630 | 22.22° C | 26% | 757.5 hPa | 0 mm | - | - | - |
| 1777923030 | 22.22° C | 23% | 757.5 hPa | 0 mm | - | - | - |
| 1777922051 | 22.78° C | 23% | 757.5 hPa | 0 mm | - | - | - |
| 1777921452 | 22.78° C | 23% | 757.5 hPa | 0 mm | - | - | - |
| 1777920851 | 22.78° C | 24% | 757.5 hPa | 0 mm | - | - | - |
| 1777919864 | 22.78° C | 23% | 757.5 hPa | 0 mm | - | - | - |
| 1777919264 | 22.22° C | 24% | 757.5 hPa | 0 mm | - | - | - |
| 1777918664 | 22.22° C | 23% | 757.5 hPa | 0 mm | - | - | - |
| 1777917673 | 22.22° C | 25% | 757.5 hPa | 0 mm | - | - | - |
| 1777917074 | 22.22° C | 24% | 757.5 hPa | 0 mm | - | - | - |
| 1777916474 | 21.67° C | 26% | 757.5 hPa | 0 mm | - | - | - |
| 1777915498 | 21.67° C | 25% | 757.5 hPa | 0 mm | - | - | - |
| 1777914898 | 21.67° C | 25% | 757.5 hPa | 0 mm | - | - | - |
| 1777914298 | 21.11° C | 25% | 757.5 hPa | 0 mm | - | - | - |
| 1777913303 | 20.56° C | 26% | 757.5 hPa | 0 mm | - | - | - |
* Rain latest hour (hover to see other rain measurements)
** Current wind speed in m/s (hover to see current wind gust speed)